Orient Glider Airport

Jump to: basic info | weather | comments

Related pages: nearby airports | nearby navaids | notams | map

Basic information (top)

Codes: FAOI
Location: lon -26.039400, lat 27.595600, elev 5,102 ft / 1,555 m msl
Status: small_airport

Weather (top)

Current conditions for Lanseria Airport 19nm (35km) ENE (rec'd 2014/11/01 09:00Z):

FALA 010900Z 03012KT 9999 SCT020 23/12 Q1022 NOSIG

Airport forecast for Lanseria Airport 19nm (35km) ENE (rec'd 2014/10/31 00:00Z):

TAF FALA 312200Z 0100/0124 06010KT CAVOK PROB30 
      TEMPO 0103/0106 BKN012 
      BECMG 0108/0110 01012KT SCT035 PROB40 
      TEMPO 0114/0118 4000 TSRA FEW040CB TX30/0113ZTN18/0103Z

Latest comments (top)

Runway Orientation and Airfield Frequency: Runway 36/18 (Main) Runway 11/29 Airfi ... [read]

More... (top)

See also NOTAMs and nearby airports and navaids, or visit the Orient Glider Airport page at the main OurAirports website..